TimeEDT,TemperatureF,Dew PointF,Humidity,Sea Level PressureIn,VisibilityMPH,Wind Direction,Wind SpeedMPH,Gust SpeedMPH,PrecipitationIn,Events,Conditions,WindDirDegrees,DateUTC
12:15 AM,50.7,49.3,95,30.26,10.0,Calm,Calm,-,N/A,,Clear,0,2013-05-27 04:15:00
12:35 AM,49.8,48.7,96,30.26,10.0,Calm,Calm,-,N/A,,Clear,0,2013-05-27 04:35:00
12:55 AM,49.3,48.2,96,30.26,10.0,Calm,Calm,-,N/A,,Clear,0,2013-05-27 04:55:00
1:15 AM,48.7,47.7,96,30.27,10.0,Calm,Calm,-,N/A,,Clear,0,2013-05-27 05:15:00
1:35 AM,48.4,47.3,96,30.27,10.0,Calm,Calm,-,N/A,,Clear,0,2013-05-27 05:35:00
1:55 AM,48.4,47.1,95,30.27,10.0,Calm,Calm,-,N/A,,Clear,0,2013-05-27 05:55:00
2:15 AM,47.5,46.8,97,30.26,10.0,Calm,Calm,-,N/A,,Clear,0,2013-05-27 06:15:00
2:35 AM,46.8,46.0,97,30.26,7.0,Calm,Calm,-,N/A,,Clear,0,2013-05-27 06:35:00
2:55 AM,46.9,46.4,98,30.26,10.0,Calm,Calm,-,N/A,,Clear,0,2013-05-27 06:55:00
3:15 AM,47.8,47.5,99,30.26,10.0,Calm,Calm,-,N/A,,Clear,0,2013-05-27 07:15:00
3:35 AM,48.4,47.7,97,30.27,10.0,Calm,Calm,-,N/A,,Clear,0,2013-05-27 07:35:00
3:55 AM,47.7,46.9,97,30.27,10.0,Calm,Calm,-,N/A,,Scattered Clouds,0,2013-05-27 07:55:00
4:15 AM,47.7,47.1,98,30.27,10.0,Calm,Calm,-,N/A,,Scattered Clouds,0,2013-05-27 08:15:00
4:35 AM,47.7,46.9,97,30.27,10.0,Calm,Calm,-,N/A,,Clear,0,2013-05-27 08:35:00
4:55 AM,46.9,46.0,97,30.27,10.0,Calm,Calm,-,N/A,,Scattered Clouds,0,2013-05-27 08:55:00
5:15 AM,46.8,46.0,97,30.28,10.0,Calm,Calm,-,N/A,,Scattered Clouds,0,2013-05-27 09:15:00
5:35 AM,46.8,46.0,97,30.28,10.0,Calm,Calm,-,N/A,,Mostly Cloudy,0,2013-05-27 09:35:00
5:55 AM,46.0,45.5,98,30.28,10.0,Calm,Calm,-,N/A,,Scattered Clouds,0,2013-05-27 09:55:00
6:15 AM,45.7,45.0,97,30.29,7.0,Calm,Calm,-,N/A,,Clear,0,2013-05-27 10:15:00
6:35 AM,45.7,45.3,99,30.30,10.0,Calm,Calm,-,N/A,,Clear,0,2013-05-27 10:35:00
6:55 AM,46.6,46.2,99,30.30,10.0,Calm,Calm,-,N/A,,Clear,0,2013-05-27 10:55:00
7:15 AM,48.4,46.9,95,30.31,10.0,Calm,Calm,-,N/A,,Clear,0,2013-05-27 11:15:00
7:35 AM,50.7,48.4,92,30.31,10.0,Calm,Calm,-,N/A,,Clear,0,2013-05-27 11:35:00
7:55 AM,53.8,49.8,86,30.31,10.0,Calm,Calm,-,N/A,,Clear,0,2013-05-27 11:55:00
8:15 AM,56.3,50.5,81,30.31,10.0,Calm,Calm,-,N/A,,Clear,0,2013-05-27 12:15:00
8:35 AM,58.8,48.0,67,30.31,10.0,North,3.5,-,N/A,,Clear,10,2013-05-27 12:35:00
8:55 AM,61.0,46.9,60,30.32,10.0,Calm,Calm,-,N/A,,Scattered Clouds,0,2013-05-27 12:55:00
9:15 AM,61.7,45.1,55,30.33,10.0,Calm,Calm,-,N/A,,Scattered Clouds,0,2013-05-27 13:15:00
9:35 AM,63.7,42.4,46,30.33,10.0,Calm,Calm,-,N/A,,Clear,0,2013-05-27 13:35:00
9:55 AM,64.4,42.6,45,30.32,10.0,Calm,Calm,-,N/A,,Clear,0,2013-05-27 13:55:00
10:15 AM,66.2,44.8,46,30.32,10.0,Calm,Calm,-,N/A,,Clear,0,2013-05-27 14:15:00
10:35 AM,68.0,43.2,41,30.32,10.0,Calm,Calm,-,N/A,,Scattered Clouds,0,2013-05-27 14:35:00
10:55 AM,68.4,45.7,44,30.32,10.0,Calm,Calm,-,N/A,,Mostly Cloudy,0,2013-05-27 14:55:00
11:15 AM,68.9,45.1,42,30.31,10.0,Calm,Calm,-,N/A,,Mostly Cloudy,0,2013-05-27 15:15:00
11:35 AM,70.5,46.8,43,30.30,10.0,Calm,Calm,-,N/A,,Scattered Clouds,0,2013-05-27 15:35:00
11:55 AM,71.1,48.0,44,30.30,10.0,WSW,3.5,-,N/A,,Clear,250,2013-05-27 15:55:00
12:15 PM,71.4,49.3,45,30.30,10.0,Calm,Calm,-,N/A,,Scattered Clouds,0,2013-05-27 16:15:00
12:35 PM,72.7,51.1,47,30.29,10.0,West,3.5,-,N/A,,Scattered Clouds,280,2013-05-27 16:35:00
12:55 PM,73.8,52.0,46,30.29,10.0,WSW,3.5,-,N/A,,Mostly Cloudy,240,2013-05-27 16:55:00
1:15 PM,74.7,53.2,47,30.28,10.0,SW,3.5,-,N/A,,Mostly Cloudy,230,2013-05-27 17:15:00
1:35 PM,76.6,54.0,45,30.27,10.0,West,4.6,-,N/A,,Scattered Clouds,270,2013-05-27 17:35:00
1:55 PM,77.0,54.7,46,30.26,10.0,SSE,4.6,-,N/A,,Scattered Clouds,150,2013-05-27 17:55:00
2:15 PM,78.4,55.8,45,30.25,10.0,ESE,3.5,-,N/A,,Scattered Clouds,120,2013-05-27 18:15:00
2:35 PM,77.0,54.7,46,30.25,10.0,SSW,4.6,-,N/A,,Mostly Cloudy,210,2013-05-27 18:35:00
2:55 PM,77.7,55.0,45,30.24,10.0,SSE,5.8,-,N/A,,Overcast,150,2013-05-27 18:55:00
3:15 PM,79.7,55.0,43,30.23,10.0,SSW,4.6,-,N/A,,Mostly Cloudy,200,2013-05-27 19:15:00
3:35 PM,77.9,55.0,45,30.22,10.0,South,4.6,-,N/A,,Mostly Cloudy,180,2013-05-27 19:35:00
3:55 PM,80.1,54.9,42,30.21,10.0,South,5.8,-,N/A,,Mostly Cloudy,180,2013-05-27 19:55:00
4:15 PM,80.2,54.9,41,30.21,10.0,WSW,5.8,-,N/A,,Scattered Clouds,240,2013-05-27 20:15:00
4:35 PM,78.3,56.1,46,30.21,10.0,Calm,Calm,-,N/A,,Mostly Cloudy,0,2013-05-27 20:35:00
4:55 PM,77.5,56.5,48,30.20,10.0,SSW,3.5,-,N/A,,Overcast,200,2013-05-27 20:55:00
5:15 PM,77.5,57.4,50,30.20,10.0,SSW,3.5,-,N/A,,Mostly Cloudy,210,2013-05-27 21:15:00
5:35 PM,80.1,55.8,43,30.20,10.0,South,5.8,-,N/A,,Mostly Cloudy,180,2013-05-27 21:35:00
5:55 PM,80.1,55.4,43,30.20,10.0,South,3.5,-,N/A,,Mostly Cloudy,170,2013-05-27 21:55:00
6:15 PM,78.1,56.8,48,30.20,10.0,Calm,Calm,-,N/A,,Mostly Cloudy,0,2013-05-27 22:15:00
6:35 PM,78.1,57.0,48,30.20,10.0,Calm,Calm,-,N/A,,Overcast,0,2013-05-27 22:35:00
6:55 PM,77.2,58.8,53,30.20,10.0,Calm,Calm,-,N/A,,Mostly Cloudy,0,2013-05-27 22:55:00
7:15 PM,76.6,58.1,53,30.19,10.0,South,3.5,-,N/A,,Clear,180,2013-05-27 23:15:00
7:35 PM,75.4,57.4,53,30.18,10.0,Calm,Calm,-,N/A,,Clear,0,2013-05-27 23:35:00
7:55 PM,74.1,57.4,56,30.18,10.0,Calm,Calm,-,N/A,,Clear,0,2013-05-27 23:55:00
8:15 PM,72.7,57.9,60,30.18,10.0,Calm,Calm,-,N/A,,Clear,0,2013-05-28 00:15:00
8:35 PM,70.0,58.3,66,30.18,10.0,Calm,Calm,-,N/A,,Clear,0,2013-05-28 00:35:00
8:55 PM,67.8,59.2,74,30.19,10.0,Calm,Calm,-,N/A,,Clear,0,2013-05-28 00:55:00
9:15 PM,63.5,59.7,87,30.20,10.0,Calm,Calm,-,N/A,,Clear,0,2013-05-28 01:15:00
9:35 PM,62.6,59.4,89,30.20,10.0,Calm,Calm,-,N/A,,Clear,0,2013-05-28 01:35:00
9:55 PM,61.5,59.0,91,30.21,10.0,Calm,Calm,-,N/A,,Clear,0,2013-05-28 01:55:00
10:15 PM,61.3,58.6,91,30.22,10.0,Calm,Calm,-,N/A,,Clear,0,2013-05-28 02:15:00
10:35 PM,60.3,58.5,94,30.22,10.0,Calm,Calm,-,N/A,,Clear,0,2013-05-28 02:35:00
10:55 PM,60.6,58.5,93,30.22,10.0,Calm,Calm,-,N/A,,Clear,0,2013-05-28 02:55:00
11:15 PM,58.5,57.2,96,30.22,10.0,Calm,Calm,-,N/A,,Clear,0,2013-05-28 03:15:00
11:35 PM,59.2,57.6,94,30.22,10.0,Calm,Calm,-,N/A,,Clear,0,2013-05-28 03:35:00
11:55 PM,58.5,57.2,96,30.22,10.0,NW,3.5,-,N/A,,Clear,310,2013-05-28 03:55:00